THORAD DELTA 1 DEB, 8303

Orbit data source: Space-Track

THORAD DELTA 1 DEB, 8303 is space debris in SSO originally from a launch on Fri, 15 Nov 1974 UTC launched from the Air Force Western Test Range (AFWTR). Debris objects in space refer to the collection of defunct objects orbiting the Earth. Examples of debris include non-operational satellites, rocket bodies, and fragments generated from explosions, collisions, or faulty payload assembly.

Loading next visibility...
Identifier
8303, 1974-089BL
Orbit
SSO
Country
Flag of USUS
Related business
Manufacturer
Unknown
Mission
Spacecraft
Bus & Motor
Unknown
Mass
Unknown
Launch date (UTC)
1974-11-15 (51 years ago)
Launch vehicle
Unknown
Launch site
Air Force Western Test Range (AFWTR)
Object type
Payload
Rocket body
Debris
Shape & HBR
Unknown shape, 0.1 m
Radar Cross Section
Small (<0.1 m²)

Expand to show TLE details & history
Last TLE update: 4 days ago

TLE from 4 days ago
0 THORAD DELTA 1 DEB
1 08303U 74089BL  26063.51013233  .00000231  00000-0  17159-2 0  9998
2 08303 101.2871 264.2084 0031799 326.3099  63.7584 12.53491902339692
Epoch: 2026-03-04T12:14Z
TLE epoch observation values (Epoch: 2026-03-04T12:14:35.433Z)
Latitude
29.796°
Longitude
-88.24299°
Altitude
1,442.437 km
Speed
7.148 km/s
True Right ascension
17h 10m 42s
True Declination
29° 39' 39"
Sunlit
Object was in daylight at epoch
Visualization orbit readout
Latitude
Unknown
Longitude
Unknown
Altitude
Unknown
Speed
Unknown
Apparent Right ascension
Unknown
Apparent Declination
Unknown
Sunlit
N/A
Visualization observer readout
Local Sidereal Time
04:56:53
Azimuth
Unknown
Elevation
Unknown
Doppler factor
Unknown
Orbital elements
Apogee altitude
1,472.323 km
Perigee altitude
1,422.554 km
Semi-major axis
7,825.576 km
Eccentricity
0.00318
Inclination
101.2871°
RAAN
264.2084°
Arg. of periapsis
326.3099°
True anomaly
64.08581°
Mean anomaly
63.7584°
Eccentric anomaly
63.92205°
Mean motion
3.13523 °/min
Orbital period
114.82 mins
BSTAR
0.0017159
Loading maneuver chart data...
Computing Atmospheric mass density...

Documentation

Showing up to 5 results
|